,,PA_Meas_PMT16A,,PR_Meas_QMR101_102,,RH_Meas_QMH101,,SR_Meas_QMS101,,TA_Meas_QMH101,,GenWind,,GenWind,
time,status,PA,status,PR,status,RH,status,SR,status,TA,status,DirAvg,status,SpdAvg,
2010-10-29, 00:00:05,VALID,918.113,VALID,0,VALID,91.2142,VALID,0,VALID,20.1108,VALID,19,VALID,0.0933594,
2010-10-29, 00:01:05,VALID,918.078,VALID,0,VALID,91.3133,VALID,0,VALID,20.0718,VALID,19,VALID,0.397266,
2010-10-29, 00:02:05,VALID,918.1,VALID,0,VALID,91.3819,VALID,0,VALID,20.0913,VALID,19,VALID,0.476563,
2010-10-29, 00:03:05,VALID,918.063,VALID,0,VALID,91.7478,VALID,0,VALID,20.0913,VALID,19,VALID,0.626953,
2010-10-29, 00:04:05,VALID,918.026,VALID,0,VALID,91.9079,VALID,0,VALID,20.1123,VALID,19,VALID,0,
2010-10-29, 00:05:05,VALID,917.991,VALID,0,VALID,91.7097,VALID,0,VALID,20.0928,VALID,19,VALID,0.0132813,
2010-10-29, 00:06:05,VALID,917.976,VALID,0,VALID,91.5115,VALID,0,VALID,20.0718,VALID,19,VALID,0.117188,
2010-10-29, 00:07:05,VALID,917.914,VALID,0,VALID,92.2891,VALID,0,VALID,20.0718,VALID,19,VALID,0.297266,
2010-10-29, 00:08:05,VALID,917.904,VALID,0,VALID,92.251,VALID,0,VALID,20.0928,VALID,19,VALID,0.601172,
2010-10-29, 00:09:05,VALID,917.877,VALID,0,VALID,91.8927,VALID,0,VALID,20.0928,VALID,19,VALID,0.696875,
2010-10-29, 00:10:05,VALID,917.797,VALID,0,VALID,91.7554,VALID,0,VALID,20.0733,VALID,19,VALID,0.655469,
2010-10-29, 00:11:05,VALID,917.78,VALID,0,VALID,92.7846,VALID,0,VALID,20.0733,VALID,19,VALID,0.285156,
2010-10-29, 00:12:05,VALID,917.762,VALID,0,VALID,93.0514,VALID,0,VALID,20.0328,VALID,19,VALID,0.0769531,
2010-10-29, 00:13:05,VALID,917.746,VALID,0,VALID,92.0451,VALID,0,VALID,20.0343,VALID,19,VALID,0.362109,
2010-10-29, 00:14:05,VALID,917.76,VALID,0,VALID,92.4339,VALID,0,VALID,20.0538,VALID,19,VALID,0.117969,
2010-10-29, 00:15:05,VALID,917.736,VALID,0,VALID,92.5406,VALID,0,VALID,20.0328,VALID,19,VALID,0.423438,
2010-10-29, 00:16:05,VALID,917.753,VALID,0,VALID,92.0985,VALID,0,VALID,20.0133,VALID,19,VALID,0.313281,
2010-10-29, 00:17:05,VALID,917.766,VALID,0,VALID,92.251,VALID,0,VALID,19.9938,VALID,19,VALID,0.495703,
2010-10-29, 00:18:05,VALID,917.743,VALID,0,VALID,92.0832,VALID,0,VALID,19.9548,VALID,19,VALID,0.783984,
2010-10-29, 00:19:05,VALID,917.705,VALID,0,VALID,92.3501,VALID,0,VALID,19.8963,VALID,19,VALID,0.507813,
2010-10-29, 00:20:05,VALID,917.745,VALID,0,VALID,92.8075,VALID,0,VALID,19.8783,VALID,19,VALID,0.750391,
2010-10-29, 00:21:05,VALID,917.752,VALID,0,VALID,92.8151,VALID,0,VALID,19.8588,VALID,19,VALID,0.881641,
2010-10-29, 00:22:05,VALID,917.772,VALID,0,VALID,93.1734,VALID,0,VALID,19.8378,VALID,19,VALID,0.675781,
2010-10-29, 00:23:05,VALID,917.777,VALID,0,VALID,92.7236,VALID,0,VALID,19.8183,VALID,19,VALID,0.801953,
2010-10-29, 00:24:05,VALID,917.776,VALID,0,VALID,92.6169,VALID,0,VALID,19.8183,VALID,19,VALID,0.778516,
2010-10-29, 00:25:05,VALID,917.779,VALID,0,VALID,92.1823,VALID,0,VALID,19.8378,VALID,19,VALID,1.13203,
2010-10-29, 00:26:05,VALID,917.796,VALID,0,VALID,92.1061,VALID,0,VALID,19.8573,VALID,19,VALID,1.12812,
2010-10-29, 00:27:05,VALID,917.797,VALID,0,VALID,92.3501,VALID,0,VALID,19.8783,VALID,19,VALID,0.848047,
2010-10-29, 00:28:05,VALID,917.792,VALID,0,VALID,92.472,VALID,0,VALID,19.8588,VALID,19,VALID,0.620313,
2010-10-29, 00:29:05,VALID,917.789,VALID,0,VALID,92.3501,VALID,0,VALID,19.8588,VALID,19,VALID,1.00859,
2010-10-29, 00:30:05,VALID,917.797,VALID,0,VALID,92.5788,VALID,0,VALID,19.8393,VALID,19,VALID,0.758984,
2010-10-29, 00:31:05,VALID,917.787,VALID,0,VALID,92.8761,VALID,0,VALID,19.7598,VALID,19,VALID,0.634766,
2010-10-29, 00:32:05,VALID,917.775,VALID,0,VALID,92.8989,VALID,0,VALID,19.7613,VALID,19,VALID,0.291016,
2010-10-29, 00:33:05,VALID,917.788,VALID,0,VALID,92.8227,VALID,0,VALID,19.7208,VALID,19,VALID,0.075,
2010-10-29, 00:34:05,VALID,917.802,VALID,0,VALID,92.7998,VALID,0,VALID,19.7208,VALID,19,VALID,0.0351563,
2010-10-29, 00:35:05,VALID,917.785,VALID,0,VALID,92.716,VALID,0,VALID,19.7808,VALID,19,VALID,0.131641,
2010-10-29, 00:36:05,VALID,917.808,VALID,0,VALID,92.5711,VALID,0,VALID,19.7613,VALID,19,VALID,0.437109,
2010-10-29, 00:37:05,VALID,917.766,VALID,0,VALID,92.3119,VALID,0,VALID,19.7808,VALID,19,VALID,0.0191406,
2010-10-29, 00:38:05,VALID,917.775,VALID,0,VALID,92.2586,VALID,0,VALID,19.8003,VALID,18,VALID,0.00117188,
2010-10-29, 00:39:05,VALID,917.77,VALID,0,VALID,92.3501,VALID,0,VALID,19.8198,VALID,19,VALID,0.0117188,
2010-10-29, 00:40:05,VALID,917.751,VALID,0,VALID,92.2662,VALID,0,VALID,19.8183,VALID,19,VALID,0.0347656,
2010-10-29, 00:41:05,VALID,917.764,VALID,0,VALID,92.3882,VALID,0,VALID,19.8588,VALID,19,VALID,0,
2010-10-29, 00:42:05,VALID,917.745,VALID,0,VALID,92.1747,VALID,0,VALID,19.8783,VALID,304,VALID,0.772656,
2010-10-29, 00:43:05,VALID,917.731,VALID,0,VALID,92.1061,VALID,0,VALID,19.8783,VALID,304,VALID,0.344141,
2010-10-29, 00:44:05,VALID,917.713,VALID,0,VALID,92.0909,VALID,0,VALID,19.8783,VALID,304,VALID,0.560547,
2010-10-29, 00:45:05,VALID,917.685,VALID,0,VALID,92.0756,VALID,0,VALID,19.8573,VALID,304,VALID,0.858203,
2010-10-29, 00:46:05,VALID,917.66,VALID,0,VALID,91.9918,VALID,0,VALID,19.8378,VALID,304,VALID,1.04141,
2010-10-29, 00:47:05,VALID,917.664,VALID,0,VALID,92.007,VALID,0,VALID,19.8183,VALID,304,VALID,1.20859,
2010-10-29, 00:48:05,VALID,917.661,VALID,0,VALID,92.251,VALID,0,VALID,19.8183,VALID,304,VALID,1.04102,
2010-10-29, 00:49:05,VALID,917.582,VALID,0,VALID,91.7859,VALID,0,VALID,19.8003,VALID,19,VALID,1.78008,
2010-10-29, 00:50:05,VALID,917.606,VALID,0,VALID,92.1442,VALID,0,VALID,19.7613,VALID,360,VALID,1.27656,
2010-10-29, 00:51:05,VALID,917.587,VALID,0,VALID,91.946,VALID,0,VALID,19.7013,VALID,360,VALID,1.12305,
2010-10-29, 00:52:05,VALID,917.556,VALID,0,VALID,91.9689,VALID,0,VALID,19.7028,VALID,360,VALID,0.953125,
2010-10-29, 00:53:05,VALID,917.519,VALID,0,VALID,92.2433,VALID,0,VALID,19.6833,VALID,37,VALID,2.03086,
2010-10-29, 00:54:05,VALID,917.506,VALID,0,VALID,91.9994,VALID,0,VALID,19.6833,VALID,45,VALID,1.59102,
2010-10-29, 00:55:05,VALID,917.527,VALID,0,VALID,92.2586,VALID,0,VALID,19.7028,VALID,45,VALID,1.01289,
2010-10-29, 00:56:05,VALID,917.5,VALID,0,VALID,91.8698,VALID,0,VALID,19.6833,VALID,45,VALID,1.09453,
2010-10-29, 00:57:05,VALID,917.512,VALID,0,VALID,91.9994,VALID,0,VALID,19.6833,VALID,45,VALID,1.18555,
2010-10-29, 00:58:05,VALID,917.465,VALID,0,VALID,91.7097,VALID,0,VALID,19.6623,VALID,45,VALID,1.5707,
2010-10-29, 00:59:05,VALID,917.492,VALID,0,VALID,92.1595,VALID,0,VALID,19.6428,VALID,45,VALID,1.06914,
2010-10-29, 01:00:05,VALID,917.52,VALID,0,VALID,92.4873,VALID,0,VALID,19.6428,VALID,45,VALID,0.539453,
2010-10-29, 01:01:05,VALID,917.485,VALID,0,VALID,92.1976,VALID,0,VALID,19.6428,VALID,45,VALID,0.205469,
2010-10-29, 01:02:05,VALID,917.455,VALID,0,VALID,92.1442,VALID,0,VALID,19.6428,VALID,45,VALID,0.375781,
2010-10-29, 01:03:05,VALID,917.425,VALID,0,VALID,92.1214,VALID,0,VALID,19.6623,VALID,45,VALID,0.505469,
2010-10-29, 01:04:05,VALID,917.426,VALID,0,VALID,91.9003,VALID,0,VALID,19.6818,VALID,45,VALID,0.36875,
2010-10-29, 01:05:05,VALID,917.402,VALID,0,VALID,91.885,VALID,0,VALID,19.6818,VALID,45,VALID,1.02656,
2010-10-29, 01:06:05,VALID,917.367,VALID,0,VALID,91.7935,VALID,0,VALID,19.7013,VALID,45,VALID,1.16016,
2010-10-29, 01:07:05,VALID,917.329,VALID,0,VALID,91.8164,VALID,0,VALID,19.7208,VALID,45,VALID,1.0582,
2010-10-29, 01:08:05,VALID,917.335,VALID,0,VALID,91.8012,VALID,0,VALID,19.7013,VALID,45,VALID,0.739062,
2010-10-29, 01:09:05,VALID,917.331,VALID,0,VALID,91.8927,VALID,0,VALID,19.7403,VALID,45,VALID,0.132422,
2010-10-29, 01:10:05,VALID,917.272,VALID,0,VALID,91.7859,VALID,0,VALID,19.7598,VALID,45,VALID,0.485547,
2010-10-29, 01:11:05,VALID,917.261,VALID,0,VALID,91.8545,VALID,0,VALID,19.7598,VALID,45,VALID,0.652734,
2010-10-29, 01:12:05,VALID,917.212,VALID,0,VALID,91.9536,VALID,0,VALID,19.7208,VALID,45,VALID,1.03906,
2010-10-29, 01:13:05,VALID,917.169,VALID,0,VALID,92.0299,VALID,0,VALID,19.7223,VALID,45,VALID,0.737109,
2010-10-29, 01:14:05,VALID,917.185,VALID,0,VALID,92.19,VALID,0,VALID,19.7223,VALID,45,VALID,0.277734,
2010-10-29, 01:15:05,VALID,917.192,VALID,0,VALID,92.4263,VALID,0,VALID,19.7028,VALID,45,VALID,0.513672,
2010-10-29, 01:16:05,VALID,917.152,VALID,0,VALID,92.5254,VALID,0,VALID,19.7028,VALID,45,VALID,0.869141,
2010-10-29, 01:17:05,VALID,917.143,VALID,0,VALID,92.6016,VALID,0,VALID,19.6818,VALID,45,VALID,0.533203,
2010-10-29, 01:18:05,VALID,917.115,VALID,0,VALID,92.5178,VALID,0,VALID,19.7028,VALID,45,VALID,0.383984,
2010-10-29, 01:19:05,VALID,917.093,VALID,0,VALID,92.3882,VALID,0,VALID,19.7418,VALID,45,VALID,0.909766,
2010-10-29, 01:20:05,VALID,917.09,VALID,0,VALID,92.3653,VALID,0,VALID,19.7208,VALID,45,VALID,0.799609,
2010-10-29, 01:21:05,VALID,917.064,VALID,0,VALID,92.4263,VALID,0,VALID,19.7418,VALID,45,VALID,0.513281,
2010-10-29, 01:22:05,VALID,917.046,VALID,0,VALID,92.7389,VALID,0,VALID,19.7808,VALID,45,VALID,0.00195313,
2010-10-29, 01:23:05,VALID,917.032,VALID,0,VALID,92.6321,VALID,0,VALID,19.7613,VALID,45,VALID,0.0949219,
2010-10-29, 01:24:05,VALID,917.019,VALID,0,VALID,92.5864,VALID,0,VALID,19.7598,VALID,45,VALID,0,
2010-10-29, 01:25:05,VALID,917.018,VALID,0,VALID,92.6626,VALID,0,VALID,19.7793,VALID,45,VALID,0,
2010-10-29, 01:26:05,VALID,916.988,VALID,0,VALID,92.5711,VALID,0,VALID,19.8198,VALID,45,VALID,0.00234375,
2010-10-29, 01:27:05,VALID,916.948,VALID,0,VALID,92.7998,VALID,0,VALID,19.8198,VALID,45,VALID,0,
2010-10-29, 01:28:05,VALID,916.923,VALID,0,VALID,92.6245,VALID,0,VALID,19.8198,VALID,45,VALID,0,
2010-10-29, 01:29:05,VALID,916.909,VALID,0,VALID,92.2433,VALID,0,VALID,19.8198,VALID,45,VALID,0.292969,
2010-10-29, 01:30:05,VALID,916.871,VALID,0,VALID,91.9536,VALID,0,VALID,19.8198,VALID,45,VALID,0.382813,
2010-10-29, 01:31:05,VALID,916.874,VALID,0,VALID,92.0146,VALID,0,VALID,19.7988,VALID,45,VALID,0,
2010-10-29, 01:32:05,VALID,916.869,VALID,0,VALID,91.9384,VALID,0,VALID,19.8003,VALID,45,VALID,0.510156,
2010-10-29, 01:33:05,VALID,916.842,VALID,0,VALID,92.068,VALID,0,VALID,19.8003,VALID,45,VALID,0.287109,
2010-10-29, 01:34:05,VALID,916.827,VALID,0,VALID,92.2052,VALID,0,VALID,19.7613,VALID,45,VALID,0.186719,
2010-10-29, 01:35:05,VALID,916.826,VALID,0,VALID,92.2662,VALID,0,VALID,19.7418,VALID,45,VALID,0.174219,
2010-10-29, 01:36:05,VALID,916.844,VALID,0,VALID,92.4263,VALID,0,VALID,19.7028,VALID,45,VALID,0,
2010-10-29, 01:37:05,VALID,916.882,VALID,0,VALID,92.5483,VALID,0,VALID,19.6638,VALID,45,VALID,0.170312,
2010-10-29, 01:38:05,VALID,916.843,VALID,0,VALID,92.7922,VALID,0,VALID,19.6248,VALID,45,VALID,0,
2010-10-29, 01:39:05,VALID,916.833,VALID,0,VALID,93.1581,VALID,0,VALID,19.6053,VALID,45,VALID,0,
2010-10-29, 01:40:05,VALID,916.836,VALID,0,VALID,93.4402,VALID,0,VALID,19.5858,VALID,45,VALID,0,
2010-10-29, 01:41:05,VALID,916.806,VALID,0,VALID,93.4783,VALID,0,VALID,19.5063,VALID,45,VALID,0,
2010-10-29, 01:42:05,VALID,916.77,VALID,0,VALID,93.5317,VALID,0,VALID,19.5273,VALID,45,VALID,0,
2010-10-29, 01:43:04,VALID,916.75,VALID,0,VALID,93.5851,VALID,0.107441,VALID,19.4868,VALID,45,VALID,0,
2010-10-29, 01:44:04,VALID,916.705,VALID,0,VALID,93.6537,VALID,0,VALID,19.4868,VALID,45,VALID,0,
2010-10-29, 01:45:04,VALID,916.688,VALID,0,VALID,93.6537,VALID,0,VALID,19.4868,VALID,45,VALID,0,
2010-10-29, 01:46:04,VALID,916.686,VALID,0,VALID,93.6918,VALID,0,VALID,19.4868,VALID,44,VALID,0,
2010-10-29, 01:47:04,VALID,916.652,VALID,0,VALID,93.6689,VALID,0,VALID,19.4868,VALID,45,VALID,0,
2010-10-29, 01:48:04,VALID,916.651,VALID,0,VALID,93.7223,VALID,0,VALID,19.4853,VALID,45,VALID,0,
2010-10-29, 01:49:04,VALID,916.645,VALID,0,VALID,93.6537,VALID,0,VALID,19.5063,VALID,45,VALID,0,
2010-10-29, 01:50:04,VALID,916.628,VALID,0,VALID,93.2572,VALID,0,VALID,19.4673,VALID,45,VALID,0,
2010-10-29, 01:51:04,VALID,916.591,VALID,0,VALID,93.3335,VALID,0,VALID,19.4658,VALID,45,VALID,0,
2010-10-29, 01:52:04,VALID,916.574,VALID,0,VALID,93.5088,VALID,0,VALID,19.4868,VALID,45,VALID,0,
2010-10-29, 01:53:04,VALID,916.515,VALID,0,VALID,93.4555,VALID,0,VALID,19.4868,VALID,45,VALID,0.666406,
2010-10-29, 01:54:04,VALID,916.534,VALID,0,VALID,93.4402,VALID,0,VALID,19.5063,VALID,45,VALID,0.760938,
2010-10-29, 01:55:04,VALID,916.497,VALID,0,VALID,93.2268,VALID,0,VALID,19.4853,VALID,45,VALID,0.219141,
2010-10-29, 01:56:04,VALID,916.521,VALID,0,VALID,93.3335,VALID,0,VALID,19.5258,VALID,45,VALID,0,
2010-10-29, 01:57:04,VALID,916.487,VALID,0,VALID,93.3411,VALID,0,VALID,19.5258,VALID,45,VALID,0.210547,
2010-10-29, 01:58:04,VALID,916.486,VALID,0,VALID,93.181,VALID,0,VALID,19.4868,VALID,45,VALID,0.386719,
2010-10-29, 01:59:04,VALID,916.452,VALID,0,VALID,93.425,VALID,0,VALID,19.4868,VALID,45,VALID,0.535937,
2010-10-29, 02:00:04,VALID,916.432,VALID,0,VALID,93.4097,VALID,0,VALID,19.4673,VALID,45,VALID,0.959766,
2010-10-29, 02:01:04,VALID,916.442,VALID,0,VALID,93.6384,VALID,0,VALID,19.4283,VALID,45,VALID,0.679297,
2010-10-29, 02:02:04,VALID,916.43,VALID,0,VALID,93.7756,VALID,0,VALID,19.4088,VALID,45,VALID,0.433203,
2010-10-29, 02:03:04,VALID,916.395,VALID,0,VALID,93.7604,VALID,0,VALID,19.4283,VALID,45,VALID,0.402734,
2010-10-29, 02:04:04,VALID,916.404,VALID,0,VALID,93.6994,VALID,0,VALID,19.4493,VALID,45,VALID,0.416016,
2010-10-29, 02:05:04,VALID,916.4,VALID,0,VALID,93.5927,VALID,0,VALID,19.4088,VALID,45,VALID,0.721875,
2010-10-29, 02:06:04,VALID,916.391,VALID,0,VALID,93.5241,VALID,0,VALID,19.3893,VALID,45,VALID,0.541797,
2010-10-29, 02:07:04,VALID,916.348,VALID,0,VALID,93.5469,VALID,0,VALID,19.3503,VALID,45,VALID,0.472656,
2010-10-29, 02:08:04,VALID,916.374,VALID,0,VALID,93.707,VALID,0,VALID,19.3113,VALID,45,VALID,0.364062,
2010-10-29, 02:09:04,VALID,916.375,VALID,0,VALID,93.9662,VALID,0,VALID,19.2723,VALID,45,VALID,0.786719,
2010-10-29, 02:10:04,VALID,916.388,VALID,0,VALID,94.1111,VALID,0,VALID,19.2723,VALID,45,VALID,0.865625,
2010-10-29, 02:11:04,VALID,916.361,VALID,0,VALID,94.2254,VALID,0,VALID,19.2528,VALID,45,VALID,0.926172,
2010-10-29, 02:12:04,VALID,916.395,VALID,0,VALID,94.3093,VALID,0,VALID,19.2528,VALID,45,VALID,0.805078,
2010-10-29, 02:13:04,VALID,916.374,VALID,0,VALID,94.416,VALID,0,VALID,19.2528,VALID,45,VALID,0.625391,
2010-10-29, 02:14:04,VALID,916.341,VALID,0,VALID,94.4694,VALID,0,VALID,19.2139,VALID,45,VALID,0.392188,
2010-10-29, 02:15:04,VALID,916.344,VALID,0,VALID,94.4922,VALID,0,VALID,19.2139,VALID,45,VALID,0.582812,
2010-10-29, 02:16:04,VALID,916.298,VALID,0,VALID,94.5532,VALID,0,VALID,19.1944,VALID,45,VALID,0.391016,
2010-10-29, 02:17:04,VALID,916.255,VALID,0,VALID,94.6371,VALID,0,VALID,19.1944,VALID,45,VALID,0.739453,
2010-10-29, 02:18:04,VALID,916.225,VALID,0,VALID,94.6752,VALID,0,VALID,19.1944,VALID,45,VALID,0.702734,
2010-10-29, 02:19:04,VALID,916.186,VALID,0,VALID,94.6142,VALID,0,VALID,19.2139,VALID,45,VALID,0.760156,
2010-10-29, 02:20:04,VALID,916.2,VALID,0,VALID,94.5304,VALID,0.107441,VALID,19.2139,VALID,45,VALID,0.333203,
2010-10-29, 02:21:04,VALID,916.183,VALID,0,VALID,94.4694,VALID,0,VALID,19.2139,VALID,45,VALID,0.260938,
2010-10-29, 02:22:04,VALID,916.174,VALID,0,VALID,94.4846,VALID,0.107441,VALID,19.2124,VALID,45,VALID,0.245703,
2010-10-29, 02:23:04,VALID,916.138,VALID,0,VALID,94.4313,VALID,0.107441,VALID,19.2528,VALID,45,VALID,0,
2010-10-29, 02:24:04,VALID,916.182,VALID,0,VALID,94.355,VALID,0.107441,VALID,19.2528,VALID,45,VALID,0.477344,
2010-10-29, 02:25:04,VALID,916.201,VALID,0,VALID,94.2712,VALID,0.107441,VALID,19.2528,VALID,45,VALID,0.441406,
2010-10-29, 02:26:04,VALID,916.205,VALID,0,VALID,94.1263,VALID,0,VALID,19.2723,VALID,45,VALID,0.564062,
2010-10-29, 02:27:04,VALID,916.21,VALID,0,VALID,94.0425,VALID,0,VALID,19.2723,VALID,45,VALID,0.359766,
2010-10-29, 02:28:04,VALID,916.191,VALID,0,VALID,93.9586,VALID,0,VALID,19.2933,VALID,45,VALID,0.254297,
2010-10-29, 02:29:04,VALID,916.179,VALID,0,VALID,93.8519,VALID,0,VALID,19.2738,VALID,45,VALID,0.162109,
2010-10-29, 02:30:04,VALID,916.179,VALID,0,VALID,93.7375,VALID,0,VALID,19.2753,VALID,45,VALID,0.214453,
2010-10-29, 02:31:04,VALID,916.145,VALID,0,VALID,93.7909,VALID,0,VALID,19.2348,VALID,45,VALID,0,
2010-10-29, 02:32:04,VALID,916.12,VALID,0,VALID,93.9662,VALID,0,VALID,19.2153,VALID,45,VALID,0.330469,
2010-10-29, 02:33:04,VALID,916.094,VALID,0,VALID,94.0653,VALID,0,VALID,19.2153,VALID,45,VALID,0.594922,
2010-10-29, 02:34:04,VALID,916.053,VALID,0,VALID,94.0653,VALID,0,VALID,19.2153,VALID,45,VALID,0.608984,
2010-10-29, 02:35:04,VALID,916.07,VALID,0,VALID,94.0806,VALID,0,VALID,19.2348,VALID,45,VALID,0.660937,
2010-10-29, 02:36:04,VALID,916.021,VALID,0,VALID,94.0425,VALID,0,VALID,19.2738,VALID,45,VALID,0.739453,
2010-10-29, 02:37:04,VALID,916.018,VALID,0,VALID,93.8671,VALID,0,VALID,19.3143,VALID,45,VALID,0.666797,
2010-10-29, 02:38:04,VALID,916.023,VALID,0,VALID,93.7375,VALID,0,VALID,19.3113,VALID,45,VALID,0.621484,
2010-10-29, 02:39:04,VALID,915.979,VALID,0,VALID,93.6079,VALID,0,VALID,19.2933,VALID,45,VALID,0.390625,
2010-10-29, 02:40:04,VALID,915.982,VALID,0,VALID,93.4173,VALID,0,VALID,19.2933,VALID,45,VALID,0.545703,
2010-10-29, 02:41:04,VALID,915.981,VALID,0,VALID,93.2268,VALID,0,VALID,19.2738,VALID,45,VALID,0.839063,
2010-10-29, 02:42:04,VALID,915.95,VALID,0,VALID,93.2496,VALID,0,VALID,19.2543,VALID,45,VALID,0.759375,
2010-10-29, 02:43:04,VALID,915.96,VALID,0,VALID,93.1734,VALID,0,VALID,19.2528,VALID,45,VALID,0.589844,
2010-10-29, 02:44:04,VALID,915.926,VALID,0,VALID,93.2344,VALID,0,VALID,19.2334,VALID,45,VALID,0.728516,
2010-10-29, 02:45:04,VALID,915.925,VALID,0,VALID,93.2496,VALID,0.107441,VALID,19.2139,VALID,45,VALID,0.560156,
2010-10-29, 02:46:04,VALID,915.931,VALID,0,VALID,93.242,VALID,0.107441,VALID,19.2139,VALID,45,VALID,0.456641,
2010-10-29, 02:47:04,VALID,915.894,VALID,0,VALID,93.2496,VALID,0.107441,VALID,19.2139,VALID,45,VALID,0.433984,
2010-10-29, 02:48:04,VALID,915.855,VALID,0,VALID,93.0972,VALID,0,VALID,19.2334,VALID,45,VALID,0.599219,
2010-10-29, 02:49:04,VALID,915.792,VALID,0,VALID,93.0285,VALID,0,VALID,19.2543,VALID,45,VALID,1.04492,
2010-10-29, 02:50:04,VALID,915.777,VALID,0,VALID,92.8532,VALID,0,VALID,19.2723,VALID,45,VALID,0.939844,
2010-10-29, 02:51:04,VALID,915.792,VALID,0,VALID,92.6474,VALID,0,VALID,19.2528,VALID,45,VALID,0.63125,
2010-10-29, 02:52:04,VALID,915.785,VALID,0,VALID,92.7312,VALID,0,VALID,19.2334,VALID,45,VALID,0.133594,
2010-10-29, 02:53:04,VALID,915.824,VALID,0,VALID,92.7922,VALID,0,VALID,19.2334,VALID,45,VALID,0.334766,
2010-10-29, 02:54:04,VALID,915.84,VALID,0,VALID,92.8456,VALID,0,VALID,19.2139,VALID,45,VALID,0.498828,
2010-10-29, 02:55:04,VALID,915.819,VALID,0,VALID,92.6931,VALID,0,VALID,19.2139,VALID,45,VALID,0.5375,
2010-10-29, 02:56:04,VALID,915.852,VALID,0,VALID,92.4263,VALID,0,VALID,19.1554,VALID,45,VALID,0.711719,
2010-10-29, 02:57:04,VALID,915.845,VALID,0,VALID,92.6855,VALID,0.107441,VALID,19.0774,VALID,45,VALID,0.851563,
2010-10-29, 02:58:04,VALID,915.872,VALID,0,VALID,93.4859,VALID,0,VALID,18.9994,VALID,45,VALID,0.996484,
2010-10-29, 02:59:04,VALID,915.894,VALID,0,VALID,93.7985,VALID,0,VALID,18.9799,VALID,45,VALID,0.999219,
2010-10-29, 03:00:04,VALID,915.892,VALID,0,VALID,93.9434,VALID,0,VALID,18.9409,VALID,45,VALID,0.903906,
2010-10-29, 03:01:04,VALID,915.9,VALID,0,VALID,93.9815,VALID,0,VALID,18.9409,VALID,45,VALID,0.657812,
2010-10-29, 03:02:04,VALID,915.925,VALID,0,VALID,93.9815,VALID,0,VALID,18.9214,VALID,45,VALID,0.466797,
2010-10-29, 03:03:04,VALID,915.924,VALID,0,VALID,94.0806,VALID,0,VALID,18.9019,VALID,45,VALID,0.0210938,
2010-10-29, 03:04:04,VALID,915.9,VALID,0,VALID,93.9891,VALID,0,VALID,18.9229,VALID,45,VALID,0.319531,
2010-10-29, 03:05:04,VALID,915.888,VALID,0,VALID,94.0043,VALID,0,VALID,18.9034,VALID,45,VALID,0.513672,
2010-10-29, 03:06:04,VALID,915.855,VALID,0,VALID,94.012,VALID,0,VALID,18.9019,VALID,45,VALID,0.700781,
2010-10-29, 03:07:04,VALID,915.823,VALID,0,VALID,94.0501,VALID,0,VALID,18.9214,VALID,45,VALID,0.800781,
2010-10-29, 03:08:04,VALID,915.811,VALID,0,VALID,94.1644,VALID,0,VALID,18.9409,VALID,45,VALID,0.892578,
2010-10-29, 03:09:04,VALID,915.743,VALID,0,VALID,94.073,VALID,0,VALID,19.0008,VALID,45,VALID,0.587891,
2010-10-29, 03:10:04,VALID,915.72,VALID,0,VALID,93.7528,VALID,0,VALID,18.9799,VALID,45,VALID,0.207422,
2010-10-29, 03:11:04,VALID,915.687,VALID,0,VALID,93.4936,VALID,0,VALID,19.0008,VALID,45,VALID,0.219531,
2010-10-29, 03:12:04,VALID,915.683,VALID,0,VALID,93.2039,VALID,0,VALID,18.9619,VALID,45,VALID,0.191797,
2010-10-29, 03:13:04,VALID,915.707,VALID,0,VALID,93.425,VALID,0,VALID,18.9214,VALID,45,VALID,0.398828,
2010-10-29, 03:14:04,VALID,915.667,VALID,0,VALID,93.4631,VALID,0.107441,VALID,18.8824,VALID,45,VALID,0.469531,
2010-10-29, 03:15:04,VALID,915.687,VALID,0,VALID,93.8061,VALID,0.107441,VALID,18.8824,VALID,45,VALID,0.70625,
2010-10-29, 03:16:04,VALID,915.688,VALID,0,VALID,93.8214,VALID,0.107441,VALID,18.824,VALID,45,VALID,0.848047,
2010-10-29, 03:17:04,VALID,915.681,VALID,0,VALID,93.9662,VALID,0.107441,VALID,18.7655,VALID,45,VALID,1.10859,
2010-10-29, 03:18:04,VALID,915.714,VALID,0,VALID,94.3626,VALID,0,VALID,18.7655,VALID,45,VALID,1.00547,
2010-10-29, 03:19:04,VALID,915.771,VALID,0,VALID,94.5609,VALID,0.107441,VALID,18.8045,VALID,45,VALID,1.01953,
2010-10-29, 03:20:04,VALID,915.797,VALID,0,VALID,94.3398,VALID,0.107441,VALID,18.8045,VALID,45,VALID,0.828516,
2010-10-29, 03:21:04,VALID,915.791,VALID,0,VALID,94.4617,VALID,0.107441,VALID,18.8434,VALID,45,VALID,1.05547,
2010-10-29, 03:22:04,VALID,915.809,VALID,0,VALID,94.3398,VALID,0,VALID,18.8434,VALID,45,VALID,1.09883,
2010-10-29, 03:23:04,VALID,915.833,VALID,0,VALID,94.0882,VALID,0.107441,VALID,18.8629,VALID,45,VALID,0.944922,
2010-10-29, 03:24:04,VALID,915.82,VALID,0,VALID,94.0425,VALID,0.107441,VALID,18.8629,VALID,45,VALID,1.16094,
2010-10-29, 03:25:04,VALID,915.802,VALID,0,VALID,93.9586,VALID,0,VALID,18.8434,VALID,45,VALID,1.04102,
2010-10-29, 03:26:04,VALID,915.808,VALID,0,VALID,94.0348,VALID,0.107441,VALID,18.8045,VALID,45,VALID,0.978516,
2010-10-29, 03:27:04,VALID,915.838,VALID,0,VALID,94.1416,VALID,0,VALID,18.785,VALID,45,VALID,0.970703,
2010-10-29, 03:28:04,VALID,915.826,VALID,0,VALID,94.1949,VALID,0,VALID,18.7669,VALID,45,VALID,0.779297,
2010-10-29, 03:29:04,VALID,915.821,VALID,0,VALID,94.2254,VALID,0,VALID,18.7474,VALID,45,VALID,0.235938,
2010-10-29, 03:30:04,VALID,915.844,VALID,0,VALID,94.3931,VALID,0,VALID,18.7669,VALID,45,VALID,0.566797,
2010-10-29, 03:31:04,VALID,915.846,VALID,0,VALID,94.4465,VALID,0,VALID,18.746,VALID,45,VALID,0.445703,
2010-10-29, 03:32:04,VALID,915.882,VALID,0,VALID,94.6142,VALID,0,VALID,18.7669,VALID,45,VALID,0.651563,
2010-10-29, 03:33:04,VALID,915.861,VALID,0,VALID,94.7133,VALID,0,VALID,18.7655,VALID,45,VALID,0.515625,
2010-10-29, 03:34:04,VALID,915.899,VALID,0,VALID,94.8505,VALID,0,VALID,18.8059,VALID,45,VALID,0.735547,
2010-10-29, 03:35:04,VALID,915.902,VALID,0,VALID,94.881,VALID,0,VALID,18.8059,VALID,45,VALID,0.508984,
2010-10-29, 03:36:04,VALID,915.914,VALID,0,VALID,94.8277,VALID,0,VALID,18.7864,VALID,45,VALID,0.401563,
2010-10-29, 03:37:04,VALID,915.906,VALID,0,VALID,94.8277,VALID,0,VALID,18.7864,VALID,45,VALID,0.288281,
2010-10-29, 03:38:04,VALID,915.943,VALID,0,VALID,94.8734,VALID,0,VALID,18.7669,VALID,45,VALID,0.338281,
2010-10-29, 03:39:04,VALID,915.915,VALID,0,VALID,94.9344,VALID,0,VALID,18.7669,VALID,45,VALID,0.288672,
2010-10-29, 03:40:04,VALID,915.949,VALID,0,VALID,95.0259,VALID,0,VALID,18.7669,VALID,45,VALID,0.435156,
2010-10-29, 03:41:04,VALID,915.955,VALID,0,VALID,95.0945,VALID,0,VALID,18.785,VALID,45,VALID,0.596875,
2010-10-29, 03:42:04,VALID,915.975,VALID,0,VALID,95.1021,VALID,0,VALID,18.8463,VALID,45,VALID,0.837891,
2010-10-29, 03:43:04,VALID,915.97,VALID,0,VALID,94.9954,VALID,0,VALID,18.8434,VALID,45,VALID,0.840625,
2010-10-29, 03:44:04,VALID,915.967,VALID,0,VALID,94.7591,VALID,0,VALID,18.9229,VALID,45,VALID,0.698828,
2010-10-29, 03:45:04,VALID,915.966,VALID,0,VALID,94.4999,VALID,0.107441,VALID,18.9409,VALID,45,VALID,0.68125,
2010-10-29, 03:46:04,VALID,915.968,VALID,0,VALID,94.2102,VALID,0.107441,VALID,18.9799,VALID,45,VALID,0.511328,